EW5923 Weather Reports


Display with metric or nautical units.
time (UTC)temp
F
wind
direction
speed
MPH
gust
MPH
rain 1hr
in
rain 24hr
in
rain mn
in
humidity
%
barometer
mb
20260901040123 82 141 2.0 5.0 0.00 0.20 0.20 57 1016.3
20260901035123 82 104 2.0 4.0 0.00 0.20 0.20 56 1016.2
20260901034123 82 84 2.0 4.0 0.00 0.20 0.20 57 1016.2
20260901033144 82 54 3.0 6.0 0.00 0.20 0.20 57 1015.8
20260901032123 82 6 3.0 5.0 0.00 0.20 0.20 56 1015.7
20260901031124 82 0 3.0 5.0 0.00 0.20 0.20 55 1015.5
20260901030124 82 6 4.0 6.0 0.00 0.20 0.20 55 1015.2
20260901025124 82 28 1.0 3.0 0.00 0.20 0.20 54 1015.2
20260901024145 83 23 2.0 4.0 0.00 0.20 0.20 53 1015.2
20260901023124 83 28 2.0 3.0 0.00 0.20 0.20 52 1015.0
20260901022124 83 23 3.0 5.0 0.00 0.20 0.20 51 1014.8
20260901021124 84 9 2.0 4.0 0.00 0.20 0.20 51 1014.7
20260901020125 84 23 3.0 6.0 0.00 0.20 0.20 49 1014.5
20260901015124 84 18 3.0 5.0 0.00 0.20 0.20 49 1014.6
20260901014124 85 1 4.0 6.0 0.00 0.20 0.20 48 1014.4
20260901013145 85 1 4.0 8.0 0.00 0.20 0.20 48 1014.3
20260901012146 85 0 4.0 8.0 0.00 0.20 0.20 47 1014.5
20260901011124 86 2 6.0 10.0 0.00 0.20 0.20 46 1014.4
20260901010125 86 77 4.0 9.0 0.00 0.20 0.20 48 1014.5
20260901005124 86 5 7.0 11.0 0.00 0.20 0.20 47 1014.5
20260901004146 87 1 7.0 11.0 0.00 0.20 0.20 47 1014.8
20260901003124 87 9 8.0 13.0 0.00 0.20 0.20 46 1014.7
20260901002145 88 15 2.0 5.0 0.00 0.20 0.20 44 1014.8
20260901001124 87 345 3.0 5.0 0.00 0.20 0.20 44 1015.0
20260901000124 86 286 2.0 6.0 0.00 0.20 0.20 44 1014.9
20260831235124 87 327 4.0 8.0 0.00 0.20 0.20 44 1014.9
20260831234125 87 321 4.0 8.0 0.00 0.20 0.20 45 1014.8
20260831233124 87 24 2.0 5.0 0.00 0.20 0.20 43 1014.9
20260831232123 86 20 2.0 4.0 0.00 0.20 0.20 45 1014.8
20260831231125 86 306 4.0 9.0 0.00 0.20 0.20 43 1015.2
20260831230146 86 124 4.0 7.0 0.00 0.20 0.20 44 1015.2
20260831225146 85 287 3.0 5.0 0.00 0.20 0.20 45 1015.4
20260831224125 85 261 4.0 6.0 0.00 0.20 0.20 46 1015.4
20260831223124 85 33 5.0 9.0 0.00 0.20 0.20 47 1015.6
20260831222146 85 258 5.0 8.0 0.00 0.20 0.20 49 1015.7
20260831221124 85 44 5.0 10.0 0.00 0.20 0.20 46 1016.2
20260831220145 85 14 7.0 11.0 0.00 0.20 0.20 48 1016.4
20260831215145 84 27 7.0 12.0 0.00 0.20 0.20 51 1016.6
20260831214124 84 12 7.0 12.0 0.00 0.20 0.20 53 1016.8
20260831213124 84 2 8.0 13.0 0.00 0.20 0.20 51 1017.1
20260831212124 85 30 6.0 12.0 0.00 0.20 0.20 50 1017.3
20260831211124 85 56 5.0 10.0 0.00 0.20 0.20 50 1017.3
20260831210124 85 11 6.0 10.0 0.00 0.20 0.20 53 1017.3
20260831205124 84 17 5.0 10.0 0.00 0.20 0.20 53 1017.5
20260831204124 83 5 6.0 10.0 0.00 0.20 0.20 61 1017.7
20260831203145 82 7 7.0 12.0 0.00 0.20 0.20 65 1017.7
20260831202124 81 5 6.0 11.0 0.00 0.20 0.20 68 1017.7
20260831201124 78 28 5.0 8.0 0.00 0.20 0.20 76 1017.8
20260831200124 77 30 5.0 10.0 0.00 0.20 0.20 79 1017.8
20260831195124 76 15 6.0 12.0 0.00 0.20 0.20 80 1017.9
20260831194125 76 40 7.0 11.0 0.00 0.20 0.20 80 1017.7
20260831193145 76 69 6.0 10.0 0.00 0.20 0.20 80 1017.9
20260831192124 76 8 9.0 13.0 0.00 0.20 0.20 79 1017.6
20260831191125 77 4 8.0 14.0 0.00 0.20 0.20 79 1018.2
20260831190145 77 0 9.0 14.0 0.00 0.20 0.20 77 1018.1
20260831185146 77 5 8.0 14.0 0.00 0.20 0.20 77 1017.9
20260831184125 76 13 7.0 12.0 0.00 0.20 0.20 79 1017.9
20260831183123 76 22 6.0 11.0 0.00 0.20 0.20 79 1017.9
20260831182146 76 7 11.0 16.0 0.00 0.20 0.20 77 1017.9
20260831181123 76 37 7.0 14.0 0.00 0.20 0.20 81 1017.9
20260831180122 76 45 5.0 9.0 0.00 0.20 0.20 81 1018.0
20260831175123 76 101 6.0 12.0 0.00 0.20 0.20 80 1018.2
20260831174122 75 38 4.0 8.0 0.02 0.20 0.20 83 1018.1
20260831173123 75 50 3.0 6.0 0.05 0.20 0.20 85 1018.4
20260831172145 74 360 6.0 10.0 0.07 0.20 0.20 85 1018.4
20260831171144 74 0 6.0 10.0 0.07 0.20 0.20 87 1018.2
20260831170123 73 1 9.0 15.0 0.10 0.20 0.20 87 1018.1
20260831165145 73 1 9.0 16.0 0.10 0.20 0.20 87 1017.9
20260831164124 73 360 11.0 17.0 0.10 0.18 0.18 87 1017.5
20260831163144 73 360 9.0 14.0 0.10 0.15 0.15 87 1017.6
20260831162122 73 1 5.0 9.0 0.09 0.14 0.14 86 1018.1
20260831161144 73 5 4.0 6.0 0.09 0.11 0.11 86 1018.0
20260831160124 73 8 5.0 9.0 0.10 0.10 0.10 86 1018.1
20260831155122 74 2 7.0 12.0 0.07 0.09 0.09 85 1018.3
20260831154123 74 2 9.0 15.0 0.07 0.07 0.07 84 1018.2
20260831153123 75 8 7.0 12.0 0.05 0.05 0.05 83 1017.9
20260831152123 76 43 4.0 7.0 0.03 0.05 0.05 80 1017.8
20260831151143 77 123 3.0 6.0 0.01 0.02 0.02 75 1017.9
20260831150144 77 73 4.0 10.0 0.00 0.00 0.00 73 1017.8
20260831145124 77 90 5.0 8.0 0.00 0.00 0.00 73 1017.6
20260831144123 77 78 6.0 10.0 0.00 0.00 0.00 74 1017.2
20260831143124 76 18 7.0 12.0 0.00 0.00 0.00 75 1017.1
20260831142123 76 12 9.0 15.0 0.00 0.00 0.00 75 1016.7
20260831141123 76 13 9.0 15.0 0.00 0.00 0.00 76 1016.3
20260831140123 76 27 10.0 16.0 0.00 0.00 0.00 76 1016.2
20260831135123 76 38 10.0 18.0 0.00 0.00 0.00 77 1016.1
20260831134123 76 68 8.0 16.0 0.00 0.00 0.00 77 1016.2
20260831133123 77 72 12.0 21.0 0.00 0.00 0.00 75 1016.1
20260831132123 77 85 12.0 19.0 0.00 0.00 0.00 74 1016.0
20260831131123 78 101 9.0 17.0 0.00 0.00 0.00 74 1015.9
20260831130144 78 104 10.0 16.0 0.00 0.00 0.00 72 1015.5
20260831125123 79 124 9.0 16.0 0.00 0.00 0.00 70 1015.5
20260831124123 79 139 4.0 8.0 0.00 0.00 0.00 69 1015.4
20260831123123 79 219 4.0 6.0 0.00 0.00 0.00 68 1015.1
20260831122123 79 252 4.0 7.0 0.00 0.00 0.00 66 1014.7
20260831121123 79 276 4.0 8.0 0.00 0.00 0.00 65 1014.3
20260831120123 79 217 4.0 6.0 0.00 0.00 0.00 65 1013.9
20260831115123 79 54 4.0 5.0 0.00 0.00 0.00 66 1013.7
20260831114123 79 55 3.0 5.0 0.00 0.00 0.00 66 1013.5
20260831113144 79 360 2.0 4.0 0.00 0.00 0.00 66 1013.4
20260831112123 78 360 4.0 6.0 0.00 0.00 0.00 67 1012.9
20260831111144 78 360 4.0 6.0 0.00 0.00 0.00 67 1012.9
20260831110123 78 1 4.0 6.0 0.00 0.00 0.00 67 1013.0
20260831105123 78 2 6.0 10.0 0.00 0.00 0.00 66 1013.1
20260831104123 77 2 9.0 14.0 0.00 0.00 0.00 66 1012.9
20260831103123 77 13 11.0 16.0 0.00 0.00 0.00 66 1012.6
20260831102122 77 15 10.0 16.0 0.00 0.00 0.00 66 1012.2
20260831101144 77 8 9.0 15.0 0.00 0.00 0.00 69 1012.3
20260831100122 76 10 12.0 19.0 0.00 0.00 0.00 71 1012.4
20260831095143 76 16 11.0 16.0 0.00 0.00 0.00 73 1012.6
20260831094122 76 63 12.0 18.0 0.00 0.00 0.00 72 1012.8
20260831093122 77 27 9.0 14.0 0.00 0.00 0.00 72 1012.6
20260831092122 78 24 12.0 19.0 0.00 0.00 0.00 70 1012.4
20260831091145 79 29 11.0 16.0 0.00 0.00 0.00 68 1012.9
20260831090122 79 26 11.0 15.0 0.00 0.00 0.00 68 1013.0
20260831085143 79 18 8.0 14.0 0.00 0.00 0.00 69 1013.3
20260831084122 78 31 7.0 11.0 0.00 0.00 0.00 70 1013.6
20260831083122 79 22 11.0 16.0 0.00 0.00 0.00 68 1013.4
20260831082122 81 41 12.0 19.0 0.00 0.00 0.00 62 1013.3
20260831081122 82 122 6.0 10.0 0.00 0.00 0.00 57 1014.0
20260831080123 81 34 11.0 18.0 0.00 0.00 0.00 57 1013.0
20260831075143 80 21 17.0 27.0 0.00 0.00 0.00 60 1012.5
20260831074122 80 19 12.0 20.0 0.00 0.00 0.00 62 1012.8
20260831073122 81 7 16.0 27.0 0.00 0.00 0.00 62 1013.0
20260831072123 81 16 20.0 32.0 0.00 0.00 0.00 61 1013.0
20260831071122 82 10 14.0 29.0 0.00 0.00 0.00 60 1013.2
20260831070122 83 18 13.0 21.0 0.00 0.00 0.00 60 1013.4
20260831065122 84 17 14.0 22.0 0.00 0.00 0.00 58 1013.3
20260831064123 84 12 14.0 20.0 0.00 0.00 0.00 56 1013.3
20260831063123 85 18 12.0 20.0 0.00 0.00 0.00 52 1013.5
20260831062143 85 12 14.0 21.0 0.00 0.00 0.00 51 1013.0
20260831061143 85 337 9.0 14.0 0.00 0.00 0.00 51 1012.9
20260831060122 87 327 9.0 19.0 0.00 0.00 0.00 51 1012.9
20260831055122 87 5 4.0 6.0 0.00 0.00 0.00 51 1012.1
20260831054144 87 336 4.0 8.0 0.00 0.00 0.00 51 1012.3
20260831053123 87 313 2.0 5.0 0.00 0.00 0.00 52 1012.3
20260831052122 87 330 3.0 5.0 0.00 0.00 0.00 52 1012.3
20260831051123 87 345 8.0 13.0 0.00 0.00 0.00 51 1012.2
20260831050122 88 325 5.0 10.0 0.00 0.00 0.00 53 1012.3
20260831045122 89 328 11.0 17.0 0.00 0.00 0.00 51 1012.3
20260831044143 90 339 6.0 12.0 0.00 0.00 0.00 47 1011.9
20260831043122 91 342 10.0 16.0 0.00 0.00 0.00 46 1011.6
20260831042122 92 313 8.0 16.0 0.00 0.00 0.00 43 1011.5
20260831041122 92 300 7.0 16.0 0.00 0.00 0.00 41 1011.7